Location: Newark
(49.8969°N, 3.3422°E)
Time: 10:49:04
(UTC+00:00)

A-11 Canister half - Pass Details

Date: 30 January 2020
Orbit: 1517 x 1683 km, 47.2° (Epoch: 22 February)

Event Time Altitude Azimuth Distance (km) Brightness Sun altitude
Rises 00:54:54 0° 264° (W) 4,724 - -56.1°
Reaches altitude 10° 00:57:59 10° 264° (W) 3,723 - -55.9°
Maximum altitude 01:07:19 77° 180° (S) 1,558 - -55.2°
Drops below altitude 10° 01:16:33 10° 97° (E) 3,680 - -54.4°
Exits shadow 01:17:05 - 97° (E) 3,852 11.2 -54.4°
Sets 01:19:35 0° 96° (E) 4,667 11.8 -54.2°
